Mount Vernon, IL

6:23 PM CDT on September 22, 2017 (GMT -0500)
Mount Vernon

Weather History for KMVN - November, 2014

Change the Weather History Date:

Saturday, November 22, 2014

  Actual Average Record
Temperature  
Mean Temperature 50 °F -  
Max Temperature 62 °F 50 °F 71 °F (2010)
Min Temperature 37 °F 32 °F 15 °F (2000)
Degree Days  
Heating Degree Days 16    
Moisture  
Dew Point 40 °F    
Average Humidity 65    
Maximum Humidity 81    
Minimum Humidity 51    
Precipitation  
Precipitation 0.00 in - - ()
Sea Level Pressure  
Sea Level Pressure 30.10 in    
Wind  
Wind Speed 9 mph (South)    
Max Wind Speed 24 mph    
Max Gust Speed 32 mph    
Visibility 10 miles    
Events      
Averages and records for this station are not official NWS values.
T = Trace of Precipitation, MM = Missing Value Source: NWS Daily Summary

Daily Weather History Graph

Daily Weather History Graph

Search for Another Location

Airport or City:

Trip Planner

Search our weather history database for the weather conditions in past years. The results will help you decide how hot, cold, wet, or windy it might be!

Date:

Astronomy

Nov. 22, 2014 Rise Set
Actual Time 6:44 AM CST 4:38 PM CST
Civil Twilight 6:15 AM CST 5:07 PM CST
Nautical Twilight 5:43 AM CST 5:39 PM CST
Astronomical Twilight 5:11 AM CST 6:11 PM CST
Moon 6:41 AM CST 5:08 PM CST
Length of Visible Light 10h 51m
Length of Day
9h 54m
New Moon, 0% of the Moon is Illuminated
Nov 22
New Moon
Nov 29
First Quarter
Dec 6
Full
Dec 14
Last Quarter
Dec 21
New

Hourly Weather History & Observations

Time (CST) Temp. Windchill Dew Point Humidity Pressure Visibility Wind Dir Wind Speed Gust Speed Precip Events Conditions
12:15 AM 39.2 °F 35.0 °F 28.4 °F 65% 30.26 in 10.0 mi SSE 5.8 mph - N/A   Overcast
12:35 AM 37.4 °F - 26.6 °F 65% 30.25 in 10.0 mi Calm Calm - N/A   Mostly Cloudy
12:55 AM 39.2 °F 37.0 °F 28.4 °F 65% 30.24 in 10.0 mi SSE 3.5 mph - N/A   Mostly Cloudy
1:15 AM 39.2 °F 35.9 °F 28.4 °F 65% 30.24 in 10.0 mi SSE 4.6 mph - N/A   Overcast
1:35 AM 41.0 °F 38.0 °F 28.4 °F 61% 30.23 in 10.0 mi South 4.6 mph - N/A   Overcast
1:55 AM 39.2 °F 35.9 °F 28.4 °F 65% 30.23 in 10.0 mi SSE 4.6 mph - N/A   Overcast
2:15 AM 42.8 °F 40.1 °F 30.2 °F 61% 30.23 in 10.0 mi SSE 4.6 mph - N/A   Overcast
2:35 AM 42.8 °F 40.1 °F 30.2 °F 61% 30.23 in 10.0 mi South 4.6 mph - N/A   Overcast
2:55 AM 42.8 °F 37.5 °F 32.0 °F 66% 30.22 in 10.0 mi South 9.2 mph - N/A   Overcast
3:15 AM 44.6 °F 39.2 °F 33.8 °F 66% 30.21 in 10.0 mi South 10.4 mph - N/A   Overcast
3:35 AM 44.6 °F 39.2 °F 33.8 °F 66% 30.21 in 10.0 mi South 10.4 mph - N/A   Overcast
3:55 AM 46.4 °F 41.5 °F 35.6 °F 66% 30.20 in 10.0 mi South 10.4 mph - N/A   Overcast
4:15 AM 46.4 °F 41.9 °F 35.6 °F 66% 30.20 in 10.0 mi South 9.2 mph - N/A   Overcast
4:35 AM 44.6 °F 40.2 °F 35.6 °F 71% 30.19 in 10.0 mi South 8.1 mph - N/A   Overcast
4:55 AM 44.6 °F 40.2 °F 35.6 °F 71% 30.19 in 10.0 mi South 8.1 mph - N/A   Overcast
5:15 AM 44.6 °F 40.2 °F 35.6 °F 71% 30.19 in 10.0 mi SSW 8.1 mph - N/A   Overcast
5:35 AM 44.6 °F 40.7 °F 35.6 °F 71% 30.19 in 10.0 mi South 6.9 mph - N/A   Overcast
5:55 AM 42.8 °F 38.6 °F 35.6 °F 76% 30.19 in 10.0 mi South 6.9 mph - N/A   Overcast
6:15 AM 42.8 °F 38.6 °F 37.4 °F 81% 30.19 in 10.0 mi South 6.9 mph - N/A   Overcast
6:35 AM 44.6 °F 41.4 °F 37.4 °F 76% 30.19 in 10.0 mi South 5.8 mph - N/A   Overcast
6:55 AM 44.6 °F 40.7 °F 37.4 °F 76% 30.18 in 10.0 mi South 6.9 mph - N/A   Overcast
7:15 AM 46.4 °F 42.9 °F 39.2 °F 76% 30.19 in 10.0 mi SSW 6.9 mph - N/A   Overcast
7:35 AM 48.2 °F - 41.0 °F 76% 30.19 in 10.0 mi SSW 10.4 mph - N/A   Overcast
7:55 AM 50.0 °F - 42.8 °F 76% 30.18 in 10.0 mi SSW 13.8 mph - N/A   Overcast
8:15 AM 51.8 °F - 42.8 °F 71% 30.18 in 10.0 mi SSW 13.8 mph - N/A   Overcast
8:35 AM 53.6 °F - 44.6 °F 72% 30.18 in 10.0 mi South 17.3 mph 21.9 mph N/A   Overcast
8:55 AM 53.6 °F - 44.6 °F 72% 30.18 in 10.0 mi SSW 17.3 mph 24.2 mph N/A   Overcast
9:15 AM 55.4 °F - 46.4 °F 72% 30.18 in 10.0 mi SSW 18.4 mph 25.3 mph N/A   Overcast
9:35 AM 55.4 °F - 42.8 °F 63% 30.18 in 10.0 mi SSW 19.6 mph 26.5 mph N/A   Overcast
9:55 AM 55.4 °F - 44.6 °F 67% 30.18 in 10.0 mi SSW 16.1 mph 23.0 mph N/A   Overcast
10:15 AM 55.4 °F - 44.6 °F 67% 30.17 in 10.0 mi SSW 15.0 mph 21.9 mph N/A   Overcast
10:35 AM 55.4 °F - 44.6 °F 67% 30.16 in 10.0 mi SSW 19.6 mph 25.3 mph N/A   Overcast
10:55 AM 57.2 °F - 44.6 °F 63% 30.15 in 10.0 mi South 23.0 mph 32.2 mph N/A   Overcast
11:15 AM 57.2 °F - 44.6 °F 63% 30.14 in 10.0 mi SSW 18.4 mph - N/A   Overcast
11:35 AM 57.2 °F - 44.6 °F 63% 30.14 in 10.0 mi SSW 24.2 mph 28.8 mph N/A   Overcast
11:55 AM 59.0 °F - 44.6 °F 59% 30.12 in 10.0 mi SSW 23.0 mph 28.8 mph N/A   Overcast
12:15 PM 60.8 °F - 46.4 °F 59% 30.10 in 10.0 mi South 21.9 mph 27.6 mph N/A   Overcast
12:35 PM 60.8 °F - 44.6 °F 55% 30.09 in 10.0 mi SSW 17.3 mph 29.9 mph N/A   Overcast
12:55 PM 62.6 °F - 44.6 °F 52% 30.08 in 10.0 mi SSW 21.9 mph 27.6 mph N/A   Overcast
1:15 PM 60.8 °F - 44.6 °F 55% 30.08 in 10.0 mi SSW 18.4 mph 26.5 mph N/A   Overcast
1:35 PM 60.8 °F - 44.6 °F 55% 30.07 in 10.0 mi SSW 18.4 mph - N/A   Overcast
1:55 PM 59.0 °F - 44.6 °F 59% 30.06 in 10.0 mi SSW 17.3 mph 26.5 mph N/A   Mostly Cloudy
2:15 PM 59.0 °F - 44.6 °F 59% 30.05 in 10.0 mi South 12.7 mph 19.6 mph N/A   Overcast
2:35 PM 55.4 °F - 46.4 °F 72% 30.05 in 10.0 mi SSW 8.1 mph - N/A   Mostly Cloudy
2:55 PM 55.4 °F - 46.4 °F 72% 30.04 in 10.0 mi SSW 5.8 mph - N/A   Overcast
3:15 PM 55.4 °F - 46.4 °F 72% 30.03 in 10.0 mi South 15.0 mph - N/A   Overcast
3:55 PM 55.4 °F - 46.4 °F 72% 30.02 in 10.0 mi SSW 9.2 mph - N/A   Partly Cloudy
4:15 PM 55.4 °F - 44.6 °F 67% 30.02 in 10.0 mi SSW 6.9 mph - N/A   Scattered Clouds
4:35 PM 55.4 °F - 44.6 °F 67% 30.01 in 10.0 mi South 9.2 mph - N/A   Overcast
4:55 PM 55.4 °F - 44.6 °F 67% 30.01 in 10.0 mi SSW 6.9 mph - N/A   Mostly Cloudy
5:15 PM 55.4 °F - 42.8 °F 63% 30.01 in 10.0 mi SSW 5.8 mph - N/A   Mostly Cloudy
5:35 PM 53.6 °F - 44.6 °F 72% 30.01 in 10.0 mi South 3.5 mph - N/A   Overcast
5:55 PM 55.4 °F - 42.8 °F 63% 30.02 in 10.0 mi Calm Calm - N/A   Overcast
6:15 PM 55.4 °F - 42.8 °F 63% 30.01 in 10.0 mi Calm Calm - N/A   Mostly Cloudy
6:35 PM 53.6 °F - 42.8 °F 67% 30.00 in 10.0 mi South 3.5 mph - N/A   Overcast
6:55 PM 53.6 °F - 42.8 °F 67% 30.01 in 10.0 mi South 4.6 mph - N/A   Overcast
7:15 PM 53.6 °F - 42.8 °F 67% 30.01 in 10.0 mi South 5.8 mph - N/A   Overcast
7:35 PM 55.4 °F - 42.8 °F 63% 30.00 in 10.0 mi South 5.8 mph - N/A   Overcast
7:55 PM 53.6 °F - 42.8 °F 67% 30.00 in 10.0 mi South 5.8 mph - N/A   Overcast
8:15 PM 53.6 °F - 42.8 °F 67% 29.99 in 10.0 mi South 4.6 mph - N/A   Overcast
8:35 PM 53.6 °F - 42.8 °F 67% 29.98 in 10.0 mi SSE 5.8 mph - N/A   Overcast
8:55 PM 55.4 °F - 42.8 °F 63% 29.97 in 10.0 mi South 6.9 mph - N/A   Overcast
9:15 PM 55.4 °F - 41.0 °F 58% 29.96 in 10.0 mi South 6.9 mph - N/A   Scattered Clouds
9:35 PM 55.4 °F - 39.2 °F 54% 29.96 in 10.0 mi South 9.2 mph - N/A   Partly Cloudy
9:55 PM 55.4 °F - 39.2 °F 54% 29.96 in 10.0 mi South 9.2 mph - N/A   Partly Cloudy
10:15 PM 55.4 °F - 39.2 °F 54% 29.96 in 10.0 mi South 13.8 mph - N/A   Clear
10:35 PM 55.4 °F - 39.2 °F 54% 29.96 in 10.0 mi South 10.4 mph - N/A   Scattered Clouds
10:55 PM 55.4 °F - 39.2 °F 54% 29.95 in 10.0 mi South 10.4 mph - N/A   Mostly Cloudy
11:15 PM 55.4 °F - 37.4 °F 51% 29.95 in 10.0 mi South 9.2 mph - N/A   Partly Cloudy
11:35 PM 53.6 °F - 37.4 °F 54% 29.94 in 10.0 mi South 8.1 mph - N/A   Clear
11:55 PM 53.6 °F - 37.4 °F 54% 29.94 in 10.0 mi South 4.6 mph - N/A   Clear